AirNav   Pilot Hours Calculator
 
 1715 users online  

L65 Perris Valley Airport
Perris, California, USA

GOING TO PERRIS?


FAA INFORMATION EFFECTIVE 11 AUGUST 2022

Location

FAA Identifier: L65
Lat/Long: 33-45-52.7000N 117-13-08.4000W
33-45.878333N 117-13.140000W
33.7646389,-117.2190000
(estimated)
Elevation: 1413 ft. / 431 m (estimated)
Variation: 14E (1985)
From city: 1 mile SE of PERRIS, CA
Time zone: UTC -7 (UTC -8 during Standard Time)
Zip code: 92570

Airport Operations

Airport use: Open to the public
Activation date: 10/1962
Control tower: no
ARTCC: LOS ANGELES CENTER
FSS: RIVERSIDE FLIGHT SERVICE STATION
NOTAMs facility: RAL (NOTAM-D service available)
Attendance: DAWN-DUSK
Wind indicator: yes
Segmented circle: yes

Airport Communications

CTAF: 122.775
WX AWOS-3PT at HMT (10 nm E): 118.375 (951-925-6886)
WX AWOS-3 at F70 (12 nm S): 119.025 (951-696-1018)
WX ASOS at RAL (16 nm NW): 128.8 (951-352-4392)
WX AWOS-3 at SBD (20 nm N): PHONE 909-382-0067

Nearby radio navigation aids

VOR radial/distance  VOR name  Freq  Var
HDFr233/(1.8)HOMELAND VOR112.0514E
RALr121/(16.2)RIVERSIDE VOR108.6014E
PDZr106/18.0PARADISE VORTAC112.2015E
ELBr064/26.1EL TORO VOR/DME117.2014E
OCNr003/33.0OCEANSIDE VORTAC115.3015E
POMr109/34.0POMONA VORTAC110.4015E
PSPr248/39.8PALM SPRINGS VORTAC115.5013E

Airport Services

Fuel available: 100LL JET-A
FUEL AVBL FOR EMERG USE ONLY.
Parking: tiedowns
Airframe service: MAJOR
Powerplant service: MAJOR
Bottled oxygen: NONE
Bulk oxygen: NONE

Runway Information

Runway 15/33

Dimensions: 5100 x 50 ft. / 1554 x 15 m
Surface: asphalt, in excellent condition
RUNWAY 15  RUNWAY 33
Latitude: 33-46.286167N33-45.470333N
Longitude: 117-13.262333W117-13.018667W
Elevation: 1413.0 ft.
Traffic pattern: rightleft
Displaced threshold: 1900 ft.144 ft.
Markings: basic, in good conditionbasic, in good condition
Obstructions: 30 ft. trees, 150 ft. from runway, 5:1 slope to clear
APCH RATIO TO DSPLCD THR 20:1.
none
APCH RATIO TO DSPLCD THLD 20:1.

Airport Ownership and Management from official FAA records

Ownership: Privately-owned
Owner: B & D CONATSER
2091 GOETZ ROAD
PERRIS, CA 92570
Phone 951-657-3904
Manager: PAT CONATSER
P.O. BOX 1823
PERRIS, CA 92370
Phone 951-657-1664
MAIN OFC TO LEAVE MSGS W/SECY - 951-657-3904; FAX: 951-657-6178. EMAIL: SKYDIVEPERRISPAT@AOL.COM

Airport Operational Statistics

Aircraft based on the field: 56
Single engine airplanes: 8
Multi engine airplanes: 12
Jet airplanes: 1
Ultralights: 35
    
Aircraft operations: avg 75/day *
91% local general aviation
9% transient general aviation
<1% military
* for 12-month period ending 30 April 2022

Additional Remarks

EXTSV ULTRALIGHT & PARACHUTING ACTIVITIES DAILY; DO NOT OVERFLY AIRPORT; AVOID AIRSPACE ADJ EAST. ULTRALIGHTS ON & INVOF ARPT. ULTRALIGHT AND PARACHUTING ACTIVITIES CAN BE MONITORED ON FREQ 122.775.
FOR CD CTC SOCAL APCH AT 800-448-3724.

Instrument Procedures

There are no published instrument procedures at L65.

Some nearby airports with instrument procedures:

KRIV - March Air Reserve Base (7 nm N)
KHMT - Hemet-Ryan Airport (10 nm E)
F70 - French Valley Airport (12 nm S)
KRAL - Riverside Municipal Airport (16 nm NW)
KRIR - Flabob Airport (16 nm NW)
KREI - Redlands Municipal Airport (20 nm N)
KSBD - San Bernardino International Airport (20 nm N)
 
Loc | Ops | Rwys | IFR | FBO | Links
Com | Nav | Svcs | Stats | Notes

Luxivair - San Bernardino International Airport
 
Area around L65 (Perris Valley Airport)
 
Road maps at: MapQuest Bing Google
 
Aerial photo
WARNING: Photo may not be current or correct
Aerial photo of L65 (Perris Valley Airport)
Photo by Fred Emmert AirViews.com
Photo taken 26-Jan-2015
looking southeast.

Do you have a better or more recent aerial photo of Perris Valley Airport that you would like to share? If so, please send us your photo.

 
Sectional chart

 
Airport distance calculator
Flying to Perris Valley Airport? Find the distance to fly.

From to L65

Sunrise and sunset
Times for 18-Aug-2022
 Local
(UTC-7)
 Zulu
(UTC)
Morning civil twilight05:4812:48
Sunrise06:1413:14
Sunset19:3102:31
Evening civil twilight19:5802:58

Current date and time
Zulu (UTC)  18-Aug-2022 20:51:54
Local (UTC-7)  18-Aug-2022 13:51:54
 
METAR
KRIV 
7nm N 
181958Z AUTO 31010KT 10SM FEW200 34/09 A2994 RMK AO2 SLP122 T03380091
KHMT 
10nm E 
182035Z AUTO 25011G15KT 200V260 10SM CLR 37/08 A2991 RMK AO2 T03710085
KF70 
12nm S 
182035Z AUTO 21008KT 10SM CLR 33/12 A2992 RMK AO2
KRAL 
16nm NW 
181953Z 29004KT 10SM CLR 34/10 A2990 RMK AO2 SLP109 T03440100
TAF
KRIV 
7nm N 
181200Z 1812/1918 VRB04KT 9999 FEW120 FEW250 QNH2995INS BECMG 1818/1819 32009KT 9999 FEW120 SCT250 510005 QNH2986INS TS OMTNS NE TEMPO 1821/1902 32012G20KT BECMG 1901/1902 32009KT 9999 FEW120 FEW250 QNH2987INS BECMG 1905/1906 VRB04KT 9999 FEW120 FEW250 QNH2984INS TX37/1822Z TN20/1813Z
NOTAMs
Click for the latest NOTAMs
NOTAMs are issued by the DoD/FAA and will open in a separate window not controlled by AirNav.

 

 
 

Would you like to see your business listed on this page?

 If your business provides an interesting product or service to pilots, flight crews, aircraft, or users of the Perris Valley Airport, you should consider listing it here.  To start the listing process, click on the button below
 
Add a business
 

Other Pages about Perris Valley Airport

Update a link
 
Copyright © AirNav, LLC. All rights reserved. Privacy Policy  Contact